Overview Statistics Trail Chart Weather Telemetry Raw packets
 

This is the latest recevied weather packets stored in our database for station/object SR4DIG-13. If no packets are shown the sender has not sent any weather packets the latest 10 day(s).

<< 6 7 8 9 10 11 12 >>
Time Temp. Humidity Pressure Rain* Wind** Luminosity Snow
1788599015 17.78° C 63% 1007.2 hPa 0 mm - - -
1788598714 17.78° C 63% 1007.1 hPa 0 mm - - -
1788598413 18.33° C 62% 1006.9 hPa 0 mm - - -
1788598112 18.33° C 62% 1006.9 hPa 0 mm - - -
1788597811 18.33° C 63% 1007 hPa 0 mm - - -
1788597510 17.78° C 64% 1007 hPa 0 mm - - -
1788597209 17.22° C 64% 1006.8 hPa 0 mm - - -
1788596908 17.22° C 63% 1006.8 hPa 0 mm - - -
1788596607 17.78° C 62% 1006.8 hPa 0 mm - - -
1788596320 18.33° C 60% 1006.8 hPa 0 mm - - -
1788596005 18.89° C 59% 1006.8 hPa 0 mm - - -
1788595705 20° C 56% 1006.7 hPa 0 mm - - -
1788595404 21.11° C 54% 1006.5 hPa 0 mm - - -
1788595103 21.67° C 54% 1006.4 hPa 0 mm - - -
1788594802 21.67° C 54% 1006.4 hPa 0 mm - - -
1788594501 21.67° C 55% 1006.2 hPa 0 mm - - -
1788594200 21.11° C 57% 1006.2 hPa 0 mm - - -
1788593899 20° C 60% 1006 hPa 0 mm - - -
1788593598 18.89° C 62% 1005.8 hPa 0 mm - - -
1788593129 17.78° C 64% 1005.8 hPa 0 mm - - -
1788592724 17.78° C 65% 1005.8 hPa 0 mm - - -
1788592423 17.22° C 65% 1005.7 hPa 0 mm - - -
1788592123 17.22° C 65% 1005.8 hPa 0 mm - - -
1788591822 17.22° C 65% 1005.7 hPa 0 mm - - -
1788591521 17.22° C 65% 1005.7 hPa 0 mm - - -

* Rain latest hour (hover to see other rain measurements)
** Current wind speed in m/s (hover to see current wind gust speed)